Tracking 20241 objects as of 28-Jan-2020
HD Live streaming from Space Station
objects crossing your sky now

DELTA 2 R/B(1)

Track DELTA 2 R/B(1) now!
10-day predictions


NORAD ID: 22109
Int'l Code: 1992-058B
Perigee: 631.1 km
Apogee: 682.7 km
Inclination: 19.8 °
Period: 97.7 minutes
Semi major axis: 7027 km
RCS: 9.826 m2 (large)
Launch date: September 9, 1992
Source: United States (US)
Launch site: AIR FORCE EASTERN TEST RANGE (AFETR)

Note: This is a ROCKET BODY
aabbcc
Your satellite tracking list
Your tracking list is empty




NASA's NSSDC Master Catalog

Two Line Element Set (TLE):
1 22109U 92058B   20028.59169178 +.00000450 +00000-0 +11508-4 0  9994
2 22109 019.7829 106.4704 0036729 140.1684 220.1433 14.73544410450596
Source of the keplerian elements: AFSPC